Regional Weather Roundup
Issued by NWS Grand Forks, ND

Home | Current Version | Previous Version | Graphics & Text | Print | Product List | Glossary On
Versions: 1 2 3 4 5 6 7 8 9 10 11 12 13 14 15 16 17 18 19 20 21 22 23 24 25 26 27 28 29 30 31 32 33 34 35 36 37 38 39 40 41 42 43 44 45 46 47 48 49 50
000
ASUS43 KFGF 021231
RWRFGF
PRAIRIE TO PINES  WEATHER ROUNDUP
NATIONAL WEATHER SERVICE EASTERN NORTH DAKOTA/GRAND FORKS ND
700 AM CDT SUN AUG 02 2015

 **SATELLITE DATA USED TO AUGMENT SKY COVER AT AUTOMATED STATIONS**
 *****  WEATHER ACROSS EASTERN NORTH DAKOTA  *****

CITY           SKY/WX    TMP DP  RH WIND       PRES   REMARKS
GRAND FORKS    PTCLDY    61  59  93 NW10      29.71R
6HR MIN TEMP:  61; 6HR MAX TEMP:  70; 6HR PCP:  0.02;

GRAND FRKS AFB PTCLDY    62  59  91 N13       29.73R
DEVILS LAKE    PTCLDY    61  54  77 N8        29.80R
6HR MIN TEMP:  61; 6HR MAX TEMP:  70;

FARGO          MOCLDY    68  61  78 N14       29.67R
WAHPETON ARPT  MOSUNNY   63  59  88 NW13      29.64R
$$

 ***** WEATHER ACROSS CENTRAL AND WESTERN NORTH DAKOTA  *****

CITY           SKY/WX    TMP DP  RH WIND       PRES   REMARKS
BISMARCK       CLEAR     62  55  77 NW8       29.88R
6HR MIN TEMP:  61; 6HR MAX TEMP:  70;

MINOT          CLEAR     59  53  80 W10       29.88R
6HR MIN TEMP:  58; 6HR MAX TEMP:  65;

JAMESTOWN      CLEAR     63  58  83 NW14      29.78R
6HR MIN TEMP:  60; 6HR MAX TEMP:  71;

MINOT AFB      CLEAR     58  56  94 NW9       29.87R
GARRISON         N/A     59  55  87 N12       29.88R
WILLISTON      CLEAR     54  50  86 CALM      29.96R
6HR MIN TEMP:  53; 6HR MAX TEMP:  68;

DICKINSON      CLEAR     50  48  93 W6        29.93R
6HR MIN TEMP:  50; 6HR MAX TEMP:  67;

HETTINGER      CLEAR     51  48  89 NW6       29.95R
6HR MIN TEMP:  48; 6HR MAX TEMP:  63;

$$

 *****  OTHER AIRPORT OBSERVATIONS IN OUR AREA  *****

CITY           SKY/WX    TMP DP  RH WIND       PRES   REMARKS
WALHALLA       FAIR      63  63 100 MISG      29.78R
GRAFTON AIRPOR PTSUNNY   63  61  94 NW8       29.75R
VALLEY CITY AR FAIR      64  63  94 NW13      29.76R
CANDO          FAIR      59  57  94 N12       29.82R
CAVALIER APRT  FAIR      64  61  88 NW10      29.76R
GWINNER        FAIR      66  61  82 N15       29.71R
SHEYENNE NWR     N/A     66  63  89 N10       29.95S
ROLLA          FAIR      57  55  94 NW14G20   29.85R
 ***** THE ABOVE OBSERVATIONS ARE NON NWS ARE NOT QUALITY
       CONTROLLED AND MAY MIS-REPORT RAIN FOR SNOW...
$$

  *****  WEATHER ACROSS NORTHERN MINNESOTA  *****

CITY           SKY/WX    TMP DP  RH WIND       PRES   REMARKS
FLAG ISLAND    MOCLDY    63  59  88 W9        29.67R
WARROAD        MOCLDY    61  57  88 NW7       29.69S
ROSEAU         MOCLDY    61  55  82 NW7       29.70R
HALLOCK        MOCLDY    61  57  88 N7        29.73R
THF RVR FALLS  CLOUDY    63  59  88 N9        29.71R
6HR MIN TEMP:  61; 6HR MAX TEMP:  70;

BAUDETTE       PTCLDY    59  58  96 CALM      29.67R
6HR MIN TEMP:  56; 6HR MAX TEMP:  63; 6HR PCP:  0.08;

WASKISH        LGT RAIN  63  59  88 N6        29.65S
CROOKSTON      PTCLDY    63  61  94 N8        29.72R
STEPHEN NDAWN    N/A    N/A N/A N/A N7          N/A
GREENBUSH NDAW   N/A     61  61 100 N3          N/A
$$
  *****  WEATHER ACROSS CENTRAL AND WEST MINNESOTA  *****

CITY           SKY/WX    TMP DP  RH WIND       PRES   REMARKS
FOSSTON        CLOUDY    61  57  88 NW8       29.70R
BEMIDJI        LGT RAIN  62  58  88 CALM      29.66S
PARK RAPIDS    MOCLDY    66  59  78 NE5       29.67R
6HR MIN TEMP:  63; 6HR MAX TEMP:  69; 6HR PCP: TRACE;

ELBOW LAKE     FAIR      64  63  94 SW8       29.62S
WADENA         MOCLDY    64  63  94 NE8       29.64R
DETROIT LAKES  TSTM      66  59  77 NE20G26   29.68R
MOORHEAD       MOCLDY    66  61  82 N12       29.68R
FERGUS FALLS   CLEAR     64  64 100 N3        29.63R
MORRIS MN      CLEAR     68  63  83 W13       29.62S
STAPLES        PTCLDY    64  64 100 NE6       29.64S
$$
  *****  WEATHER ELSEWHERE ACROSS MINNESOTA  *****

CITY           SKY/WX    TMP DP  RH WIND       PRES   REMARKS
DULUTH         PTSUNNY   63  57  81 VRB3      29.67R
6HR MIN TEMP:  62; 6HR MAX TEMP:  69;

INTRNTL FALLS  CLOUDY    59  58  96 CALM      29.65R
6HR MIN TEMP:  58; 6HR MAX TEMP:  64; 6HR PCP:  0.21;

ELY            CLOUDY    61  57  88 CALM      29.65S
CLOQUET        MOSUNNY   63  57  82 CALM      29.66F
WHEATON        CLEAR     66  57  72 W13G20    29.66R
BRAINERD       PTCLDY    67  65  93 NE6       29.65F
6HR MIN TEMP:  63; 6HR MAX TEMP:  70;

HIBBING        LGT RAIN  62  55  77 W6        29.65R
6HR MIN TEMP:  56; 6HR MAX TEMP:  68; 6HR PCP: TRACE;

ALEXANDRIA     CLEAR     65  63  93 S3        29.63F
6HR MIN TEMP:  64; 6HR MAX TEMP:  71;

SAINT CLOUD    CLEAR     65  64  97 S5        29.63F
6HR MIN TEMP:  64; 6HR MAX TEMP:  72;

MINNEAPOLIS    PTCLDY    72  63  73 SW7       29.67R
6HR MIN TEMP:  71; 6HR MAX TEMP:  76;

$$

  *****  WEATHER ACROSS SOUTH DAKOTA  *****

CITY           SKY/WX    TMP DP  RH WIND       PRES   REMARKS
SIOUX FALLS    PTCLDY    64  60  87 SW6       29.77R
6HR MIN TEMP:  64; 6HR MAX TEMP:  73;

BROOKINGS      CLEAR     64  57  77 S6        29.76F
WATERTOWN      CLEAR     67  61  81 W12       29.72S
6HR MIN TEMP:  63; 6HR MAX TEMP:  71;

HURON          PTCLDY    64  60  87 SW6       29.73F
6HR MIN TEMP:  60; 6HR MAX TEMP:  73;

SISSETON         N/A     69  56  62 NW13      29.65R
ABERDEEN       CLEAR     67  56  67 NW16      29.73R
6HR MIN TEMP:  60; 6HR MAX TEMP:  71;

MITCHELL       CLEAR     62  59  90 NW3       29.77R
PIERRE         CLEAR     67  61  81 W10       29.78R
6HR MIN TEMP:  63; 6HR MAX TEMP:  75;

MOBRIDGE       CLEAR     68  59  73 N14G23    29.79R
RAPID CITY     CLEAR     64  52  64 N12       29.92R
6HR MIN TEMP:  64; 6HR MAX TEMP:  72;

$$

  *****  SOME WEATHER IN NEARBY STATES *****

CITY           SKY/WX    TMP DP  RH WIND       PRES   REMARKS
GLASGOW MT     CLEAR     58  51  78 N6        30.00R
6HR MIN TEMP:  56; 6HR MAX TEMP:  67;

GREAT FALLS MT CLEAR     53  47  79 W8        30.05R
6HR MIN TEMP:  53; 6HR MAX TEMP:  67;

CHEYENNE WY    CLEAR     58  49  72 W7        30.12S
6HR MIN TEMP:  57; 6HR MAX TEMP:  66;

SCOTTSBLUFF NE CLEAR     60  56  86 CALM      29.99F
6HR MIN TEMP:  59; 6HR MAX TEMP:  74;

OMAHA NE       MOCLDY    74  70  87 S8        29.84S
6HR MIN TEMP:  73; 6HR MAX TEMP:  76; 6HR PCP:  0.01;

DES MOINES IA  CLOUDY    74  63  68 NW3       29.85R
6HR MIN TEMP:  73; 6HR MAX TEMP:  76;

DAVENPORT IA   SUNNY     70  66  87 SW10      29.87R
6HR MIN TEMP:  69; 6HR MAX TEMP:  74;

CHICAGO IL     MOSUNNY   72  67  84 SW10      29.85S
6HR MIN TEMP:  71; 6HR MAX TEMP:  74;

EAU CLAIRE WI  MOSUNNY   68  65  90 CALM      29.69R
6HR MIN TEMP:  68; 6HR MAX TEMP:  71; 6HR PCP:  0.03;

LA CROSSE WI   SUNNY     74  67  78 SE7       29.71S
6HR MIN TEMP:  72; 6HR MAX TEMP:  76;

$$

  *****  SOME NATIONAL WEATHER *****

CITY           SKY/WX    TMP DP  RH WIND       PRES   REMARKS
LA GUARDIA NY  MOSUNNY   76  57  51 CALM      29.90R
6HR MIN TEMP:  73; 6HR MAX TEMP:  77;

RALEIGH NC     PTSUNNY   73  62  68 CALM      29.97R
6HR MIN TEMP:  65; 6HR MAX TEMP:  74;

ATLANTA GA     MOSUNNY   74  60  61 NE6       29.96R
6HR MIN TEMP:  70; 6HR MAX TEMP:  80;

NEW ORLEANS LA PTCLDY    78  69  73 N6        29.89R
6HR MIN TEMP:  74; 6HR MAX TEMP:  81;

OKLAHOMA CITY  MOCLDY    73  70  90 SE3       29.97R
6HR MIN TEMP:  70; 6HR MAX TEMP:  74;

ALBUQUERQUE NM MOCLDY    67  59  75 NE3       30.17S
6HR MIN TEMP:  66; 6HR MAX TEMP:  68; 6HR PCP: TRACE;

SALT LAKE CITY PTCLDY    67  43  41 SE6       29.99R
6HR MIN TEMP:  66; 6HR MAX TEMP:  77;

LOS ANGELES CA PTCLDY    68  64  87 CALM      29.89S
6HR MIN TEMP:  68; 6HR MAX TEMP:  69;



USA.gov is the U.S. government's official web portal to all federal, state and local government web resources and services.